Domov               UVHVVR             MKGP            O straneh              
ZDRAVSTVENO VARSTVO RASTLIN
  MREŽA AGROMET. POSTAJ
 ► PROGNOSTIČNA OBVESTILA
AGROMETEOROLOŠKI PODATKI -
ARSO
OBVLADOVANJE TVEGANJ ZARADI
NEUGODNIH VREMENSKIH RAZMER
  ► NARAVNE NESREČE
  ► SUŠA/MOČA
  ► NAMAKANJE
  ► ŽLED (gozdarstvo)
KARTOGRAFSKI PRIKAZI
SPLETNE POVEZAVE
PROJEKTI IN PUBLIKACIJE

AGROMETEOROLOŠKA MREŽA: VREMENSKE POSTAJE IN FENOLOŠKA OPAZOVANJA

Pregled podatkov za lokacijo Resje, meteorološka postaja 39326

Pregled senzorjev na lokaciji

ID Ime Zadnja
vrednost
Datum
zadnje
spremembe
Tip
senzorja
2437 Padavine (mm) 0 mm 19.2.2018 06:30 Rain-O-Matic
2439 Relativna vlaga 2 m (% RH) 99,93 % RH 19.2.2018 06:30 50YA
2438 Temperatura 2 m (°C) -1,76 °C 19.2.2018 06:30 50YA

Pregled podatkov zadnjih 24 ur

Zap.
št.
Datum in čas Resje
Padavine Relativna
vlaga
2
m
Temperatura
2
m
1 19.2.2018 07:00
2 19.2.2018 06:30 0 99,9 -1,8
3 19.2.2018 06:00 0 99,9 -1,7
4 19.2.2018 05:30 0 99,9 -1,7
5 19.2.2018 05:00 0 99,9 -1,5
6 19.2.2018 04:30 0 99,9 -1,4
7 19.2.2018 04:00 0 99,9 -1,5
8 19.2.2018 03:30 0 99,9 -1,3
9 19.2.2018 03:00 0 99,9 -1,2
10 19.2.2018 02:30 0 99,9 -1,1
11 19.2.2018 02:00 0 99,9 -1,1
12 19.2.2018 01:30 0 99,9 -1,2
13 19.2.2018 01:00 0 99,9 -1,1
14 19.2.2018 00:30 0 99,9 -1,1
15 19.2.2018 00:00 0 99,9 -1
16 18.2.2018 23:30 0 99,9 -1,1
17 18.2.2018 23:00 0 99,9 -1,1
18 18.2.2018 22:30 0 99,9 -1,3
19 18.2.2018 22:00 0 99,9 -1,1
20 18.2.2018 21:30 0 99,9 -0,8
21 18.2.2018 21:00 0 99,9 -0,8
22 18.2.2018 20:30 0 99,9 -0,6
23 18.2.2018 20:00 0 99,9 -0,4
24 18.2.2018 19:30 0 99,9 -0,3
25 18.2.2018 19:00 0 99,9 -0,1
26 18.2.2018 18:30 0 99,9 -0,1
27 18.2.2018 18:00 0 99,9 0
28 18.2.2018 17:30 0 99,9 0,2
29 18.2.2018 17:00 0 99,6 0,5
30 18.2.2018 16:30 0 99 0,8
31 18.2.2018 16:00 0 98,8 1
32 18.2.2018 15:30 0 98,8 1,1
33 18.2.2018 15:00 0 99,2 1,1
34 18.2.2018 14:30 0 99,8 1,2
35 18.2.2018 14:00 0,2 99,9 1,2
36 18.2.2018 13:30 1 99,9 1,2
37 18.2.2018 13:00 1,6 99,9 1,1
38 18.2.2018 12:30 1,6 99,9 0,8
39 18.2.2018 12:00 1,6 99,9 0,7
40 18.2.2018 11:30 0,6 99,9 0,9
41 18.2.2018 11:00 0 99,9 0,8
42 18.2.2018 10:30 0 99,9 0,6
43 18.2.2018 10:00 0 99,9 0,6
44 18.2.2018 09:30 0 99,9 0,4
45 18.2.2018 09:00 0 99,9 0,3
46 18.2.2018 08:30 0 99,9 0,1
47 18.2.2018 08:00 0 99,9 0
48 18.2.2018 07:30 0 99,9 0
© 2011 Ministrstvo za kmetijstvo, gozdarstvo in prehrano. Vse pravice pridržane.